Starlink 11421

operational
NORAD ID: 61945 Int'l Des: 2024-209 Owner: SPXS Country: US Constellation: starlink
LEOCIRCULAR

About Starlink 11421

Description loading...

Live Position

Loading 3D Globe...

Upcoming Passes

Altitude History

Altitude vs Time

uPlot chart will show altitude changes over time

Two-Line Element Set

1 61945U 24209G 26020.03404213 .00166723 00000-0 13512-2 0 9998
2 61945 53.1568 251.2873 0001355 66.5908 293.5252 15.69752154 69032
Epoch: Jan 20, 2026 • Age: 18 hours

Current Status

Altitude 369.8 km
Velocity 7.69 km/s
Sub-Earth Point -33.70°S, 173.1°E
Launch Date Nov 14, 2024
Age 1.1 years
Type internet

Technical Details

Classification Payload
Mass 960.00 kg
Dry Mass 910.00 kg
Total Mass 960.00 kg
Length 0.30 m
Diameter 4.10 m
Span 29.00 m
Shape Box + pan
Manufacturer SPXS
Bus Type Starlink V2MD
Phase Status In Orbit
Owner/State SPXS/US

Large Constellations

Loading constellations...